Theta_e
314 311 311 311 311 311 311 311 311 308 309 310 314 316 316 315 313 310 311 317 318 319 319 320 319 319 318 317 318 316 308 307 315 316 315 317 316 319 319 319 318 318 318 319 319
315 310 312 313 312 311 311 311 309 308 310 311 316 316 318 320 315 315 311 318 318 319 319 319 319 319 320 318 318 314 309 313 315 316 316 316 318 319 318 318 318 319 318 319 319
315 311 312 313 312 311 311 311 309 309 310 313 316 317 318 320 317 315 318 318 318 318 319 319 319 318 318 318 317 316 315 315 317 318 319 317 316 318 318 316 319 319 319 319 319
314 310 312 313 312 310 312 311 311 310 311 315 316 317 320 320 315 316 318 318 319 318 318 319 318 318 314 314 317 317 317 317 318 318 317 316 318 316 318 318 319 320 320 319 319
310 310 312 312 311 311 312 311 312 313 313 315 318 319 321 319 317 318 319 319 319 318 318 318 318 318 314 315 317 316 316 318 319 319 319 318 317 318 317 319 320 320 320 320 319
311 312 312 312 313 312 312 312 314 316 317 317 318 320 322 323 318 318 319 318 317 319 319 318 318 318 318 316 315 317 317 317 318 318 319 316 317 317 318 318 319 319 319 319 320
311 312 313 316 315 312 312 312 312 315 317 317 318 321 321 317 317 318 318 317 317 317 317 317 319 318 318 315 318 317 315 315 317 318 314 315 313 315 317 317 317 317 317 318 318
312 314 316 316 314 312 312 313 313 316 317 317 317 321 322 319 318 318 317 317 317 317 317 317 317 318 318 318 317 316 315 315 314 314 316 315 313 313 316 316 316 316 316 316 317
313 314 315 316 313 312 312 313 314 314 314 313 314 317 320 320 318 317 317 317 317 317 318 318 317 318 317 315 313 313 315 314 312 313 313 313 312 313 315 316 315 315 315 316 316
313 314 314 316 314 317 319 321 320 315 313 316 319 317 320 319 317 317 317 318 317 317 316 316 316 314 311 311 314 312 312 312 312 313 313 312 312 313 315 315 314 315 316 316 317
312 314 314 315 317 319 319 319 319 319 318 318 319 320 320 318 318 318 317 317 317 317 314 315 312 312 313 313 314 313 314 313 313 314 314 313 312 314 314 315 314 315 315 319 318
307 312 314 314 316 319 319 320 319 319 318 319 319 318 321 321 318 318 318 317 317 315 314 312 313 315 315 315 316 316 314 315 314 315 315 313 314 313 313 313 315 319 319 319 320
308 308 313 318 319 320 320 319 319 319 319 318 320 319 321 320 318 318 317 317 317 315 315 315 315 316 317 316 317 316 315 314 315 314 314 313 314 314 314 317 319 320 319 320 319
309 308 311 318 320 319 319 318 318 320 317 322 321 321 321 319 317 318 318 317 316 315 314 315 316 317 316 316 315 314 314 315 314 313 313 313 315 313 313 316 318 319 319 319 319
309 308 310 313 320 321 320 319 318 322 328 324 321 318 318 316 317 317 319 318 316 316 317 317 317 316 315 316 315 315 314 313 313 313 313 313 312 312 315 317 318 318 319 319 319
309 309 310 320 322 320 319 317 320 326 330 318 317 317 315 316 317 319 319 318 318 317 317 316 318 316 316 315 315 314 312 311 312 311 312 315 316 315 317 318 319 320 319 318 319
308 311 309 312 322 318 315 321 322 328 321 319 317 316 315 318 319 319 319 317 316 318 318 317 317 316 316 314 312 311 310 310 313 311 314 314 316 314 318 318 318 319 319 318 319
308 312 312 311 316 316 317 320 327 325 317 317 317 316 317 318 318 319 318 317 318 317 315 317 318 317 316 314 314 313 312 310 317 316 317 316 316 317 317 317 318 318 318 316 315
310 315 320 321 316 315 319 321 319 317 316 317 317 318 318 318 317 318 317 317 319 316 317 315 318 316 316 314 313 313 310 313 311 313 315 315 316 317 317 318 318 317 316 314 313
312 323 321 320 318 321 321 323 319 318 318 318 318 318 318 317 318 317 317 319 320 318 316 317 316 316 316 314 314 312 312 316 312 314 318 315 314 315 317 315 316 315 312 312 312
321 324 321 317 317 323 322 322 317 318 318 318 318 318 318 318 318 317 318 318 319 318 316 315 311 316 315 314 313 312 312 315 317 315 319 317 313 312 313 312 314 312 312 312 311
319 318 320 318 318 319 314 318 317 319 318 317 317 318 318 316 316 318 318 318 317 317 317 316 312 313 315 314 313 312 313 314 308 316 313 315 315 312 312 313 312 312 311 311 311
317 320 318 316 313 313 315 317 318 318 319 318 317 318 317 316 315 318 317 316 316 315 315 313 309 308 315 311 311 314 314 313 313 311 312 319 317 313 313 313 311 310 311 310 309
314 311 315 315 314 314 314 317 318 318 317 314 315 314 314 315 315 314 315 315 315 315 316 317 310 312 316 315 313 315 315 315 313 317 317 319 318 316 314 312 310 311 310 309 309
311 312 310 308 309 311 313 316 316 315 315 314 313 314 313 312 312 313 314 314 314 314 315 313 313 313 314 315 316 316 316 316 316 316 319 318 316 315 312 309 310 310 310 309 307
309 308 308 309 312 312 310 311 314 313 313 313 312 312 312 312 312 313 313 312 312 312 312 310 312 315 316 316 317 317 317 318 318 317 315 315 315 312 311 310 309 309 308 306 306
304 306 308 309 310 308 309 311 312 311 312 313 312 310 311 314 313 313 313 312 311 311 311 310 312 313 316 316 318 319 317 316 316 316 315 313 314 309 309 308 308 307 305 305 305
Wind_Speed
10 9 9 10 10 9 9 10 9 7 4 8 10 9 10 12 12 11 11 10 11 13 15 14 9 8 4 6 4 3 4 1 3 6 4 8 9 20 16 18 11 15 11 11 12
11 8 9 9 11 11 11 9 9 7 7 10 9 7 6 8 12 16 12 12 14 18 19 23 26 13 5 5 3 5 4 6 5 3 5 2 4 10 12 21 15 19 16 17 18
12 9 9 10 11 12 11 9 8 7 9 10 7 4 6 7 7 9 13 14 15 18 17 20 20 12 6 7 12 4 2 4 6 9 9 5 3 4 2 7 19 16 18 21 19
13 10 9 10 11 12 9 6 7 8 9 8 4 4 7 7 3 9 10 11 15 13 15 19 21 14 6 6 11 2 7 5 10 17 15 10 18 5 8 18 23 20 19 18 19
14 11 10 11 12 12 8 5 7 10 9 7 5 6 6 4 3 7 10 11 11 11 14 18 19 13 6 7 17 1 5 19 26 30 28 24 18 22 17 35 29 25 20 23 20
13 12 11 12 12 10 6 6 8 8 7 5 5 9 4 3 4 7 7 13 16 6 9 9 8 10 7 10 1 7 19 22 21 25 23 10 18 12 19 21 20 23 25 26 26
12 12 13 13 12 8 7 7 6 5 4 3 6 11 4 4 2 4 9 12 11 12 10 11 9 5 6 7 7 8 9 13 17 12 6 12 10 4 20 26 24 23 24 20 22
12 12 13 14 11 8 7 6 5 4 1 3 7 11 5 3 3 2 6 7 10 5 12 13 12 13 6 7 7 6 1 3 8 5 11 2 9 9 20 28 30 26 27 33 34
10 10 11 12 10 9 6 3 2 2 3 7 9 7 6 3 5 4 8 4 10 10 13 18 18 15 8 3 5 4 5 6 7 8 5 4 10 7 21 25 27 34 38 36 37
9 7 9 9 7 9 9 6 7 7 9 12 11 8 3 5 3 11 5 6 9 10 16 19 4 1 4 5 5 8 5 6 7 6 4 3 10 8 16 23 26 33 38 40 38
9 6 5 5 5 7 11 9 14 3 10 16 18 15 20 3 10 15 16 10 7 6 3 8 6 5 7 8 11 7 7 8 7 4 5 3 11 14 11 23 26 30 28 29 36
13 5 4 2 1 4 7 10 13 13 11 19 21 22 20 19 16 22 5 9 2 2 5 7 4 5 10 9 8 11 8 15 11 3 2 6 19 10 7 9 14 17 21 21 28
16 7 0 3 2 6 10 9 8 15 4 13 7 11 13 11 19 20 13 9 3 1 5 3 10 13 11 10 12 9 9 10 8 6 2 5 13 12 12 2 10 17 21 18 22
18 8 2 4 2 8 12 11 16 14 4 6 2 3 7 12 6 12 12 11 2 7 6 5 8 8 10 4 7 3 10 6 12 9 4 5 17 7 8 6 5 15 22 22 30
17 9 1 3 4 6 10 10 11 7 3 2 3 6 8 5 13 11 11 7 7 8 3 10 4 5 4 2 3 4 11 7 8 3 0 3 6 5 6 6 8 12 20 23 27
16 8 2 6 3 7 11 13 4 4 3 3 4 5 5 4 6 14 3 8 10 3 3 3 4 3 3 3 2 7 8 6 3 2 3 1 2 5 3 7 8 17 22 18 24
15 7 4 6 3 8 12 3 4 3 5 6 4 6 4 7 7 10 7 6 3 6 3 3 1 2 8 6 5 10 7 5 6 4 4 2 8 8 5 5 4 7 17 22 24
14 4 3 6 1 7 10 4 4 1 4 5 4 6 4 10 7 10 9 8 6 4 2 3 5 3 6 3 4 5 4 4 5 3 14 5 5 4 6 11 5 6 14 18 21
11 1 5 3 4 7 2 4 1 3 4 4 5 4 6 13 6 8 7 3 5 6 3 4 3 7 3 2 3 5 2 4 0 3 3 3 6 6 8 7 6 15 17 20 24
7 4 4 3 6 1 4 3 4 2 2 3 3 3 4 5 6 7 3 3 2 2 3 3 7 5 0 6 2 2 3 2 3 3 4 4 5 8 6 6 7 7 10 17 23
6 3 4 3 4 1 3 2 4 13 2 2 1 2 2 3 3 4 5 8 1 4 2 3 3 5 4 3 8 5 3 3 3 3 3 4 5 4 14 5 7 4 9 17 25
7 3 3 5 3 3 2 3 8 9 9 2 3 2 1 4 3 3 5 3 17 6 4 2 3 4 7 17 10 6 7 4 3 5 5 8 13 12 3 4 4 6 17 22 28
9 7 7 4 3 3 6 4 2 6 7 4 2 4 2 2 4 3 6 9 14 8 4 3 2 4 10 6 5 1 4 5 4 2 6 6 7 7 13 3 5 12 21 23 26
8 5 6 7 5 3 5 5 6 14 3 7 1 3 4 3 3 7 12 7 16 20 19 5 5 8 12 14 4 13 17 15 6 6 12 16 18 23 8 6 11 23 21 20 30
9 4 6 5 5 9 3 2 5 6 7 11 5 5 4 4 4 7 4 8 9 20 3 4 7 7 11 14 12 16 20 24 17 17 14 20 18 17 8 6 13 17 22 36 39
6 7 8 11 13 8 7 5 5 7 2 4 4 8 6 6 6 5 4 4 8 7 7 2 6 4 9 13 14 20 21 22 21 13 6 7 16 7 5 11 19 26 29 37 36
10 9 4 6 6 4 2 5 6 9 8 14 10 5 5 2 13 21 27 32 25 12 15 5 4 2 11 6 11 10 14 7 5 4 4 8 14 6 10 14 26 31 36 40 33
Wind_Direction
26 33 39 43 42 36 20 16 16 16 73 126 120 103 84 66 48 53 74 74 44 30 19 12 13 0 299 273 245 170 65 18 337 331 269 351 13 350 348 3 4 352 357 352 3
25 34 38 40 34 27 21 25 32 47 110 129 127 106 64 33 49 56 86 67 38 22 25 20 12 7 331 288 216 112 105 219 221 251 264 181 21 327 341 337 335 329 311 322 321
32 39 36 34 27 20 20 31 52 80 120 132 130 92 17 16 73 63 74 62 42 26 22 15 8 21 48 20 19 336 174 188 286 306 301 318 229 291 241 295 296 296 302 304 312
39 44 40 29 20 16 18 40 72 104 128 135 112 37 16 30 94 49 75 53 36 25 18 13 21 23 23 356 356 5 322 349 318 325 329 313 315 285 265 269 284 276 282 291 288
39 42 41 26 13 11 25 67 94 115 123 114 81 24 25 47 56 64 45 27 27 32 7 3 22 12 0 333 348 59 323 320 319 319 321 320 311 291 280 288 283 281 283 294 280
39 42 31 19 11 14 54 97 117 119 118 92 40 22 39 27 30 39 5 6 0 333 7 358 351 341 317 314 334 298 310 305 312 312 321 315 297 323 323 319 308 287 290 293 281
35 34 29 20 16 35 82 105 129 137 118 47 10 4 337 0 299 347 331 348 358 360 337 330 298 321 302 308 314 300 331 321 304 313 300 334 326 276 325 320 314 302 305 312 307
34 31 29 21 34 55 86 100 125 145 131 330 345 339 283 283 32 347 330 318 327 352 316 302 311 277 249 273 326 327 157 307 293 3 314 44 281 296 349 347 335 330 322 317 312
27 26 30 29 46 59 71 78 155 199 294 307 320 332 299 259 252 316 322 257 334 350 327 308 299 244 249 50 349 342 256 246 299 244 261 55 289 312 334 335 322 319 317 314 307
12 12 23 33 56 53 26 6 318 275 282 305 281 299 261 245 236 327 309 249 294 347 339 336 8 9 7 74 268 271 236 252 261 287 70 349 276 303 325 320 310 309 304 304 303
354 355 4 28 63 53 41 29 17 12 315 278 276 274 286 235 290 295 316 258 269 327 351 340 39 311 258 236 250 259 276 272 272 217 331 268 273 301 322 303 295 293 303 311 313
356 337 349 51 74 32 6 14 9 324 295 286 268 265 265 266 287 287 258 204 218 308 344 12 292 261 302 311 318 326 310 299 295 246 287 308 289 303 310 278 292 318 327 331 333
355 345 337 130 42 18 23 359 349 325 311 299 254 232 245 249 253 275 267 225 178 253 275 187 254 287 305 300 309 294 330 308 276 310 183 300 294 315 303 306 330 358 353 351 352
359 350 220 202 94 64 31 15 333 322 55 281 175 285 248 240 268 292 263 221 188 222 241 228 254 306 306 326 356 294 329 316 320 340 300 89 292 322 284 304 297 340 349 352 6
359 351 239 190 138 22 345 331 313 326 50 184 69 36 333 245 287 291 197 185 201 219 162 253 320 291 65 326 358 261 313 285 279 283 8 224 267 321 344 322 314 320 340 342 10
347 346 225 161 154 347 330 321 297 46 356 19 68 347 348 296 345 20 312 267 273 238 255 255 279 58 128 279 16 302 342 326 346 56 37 243 92 270 298 281 315 329 334 353 15
339 331 236 208 202 314 350 350 48 98 348 2 346 332 351 346 5 19 346 359 321 335 325 339 173 92 39 355 29 21 28 328 349 358 232 1 315 264 283 325 302 321 322 355 26
337 320 150 145 258 338 354 56 73 310 9 48 323 323 64 13 345 359 6 349 2 36 336 354 330 49 345 102 293 314 139 167 287 276 292 276 240 250 264 292 316 339 355 40 34
350 97 147 157 19 352 8 66 273 2 348 359 345 37 353 349 346 14 343 291 47 31 12 349 266 327 306 98 114 296 3 246 59 258 312 246 289 302 271 309 343 329 18 15 8
22 85 103 35 336 169 73 229 182 85 115 51 65 12 331 336 10 11 299 289 349 99 127 242 292 250 259 359 343 68 197 201 11 304 273 270 258 256 266 275 327 341 5 356 356
62 75 111 302 303 14 118 249 343 345 94 128 81 294 336 332 326 291 265 307 258 306 295 113 136 272 23 290 291 324 332 47 149 201 273 292 258 264 270 276 265 271 3 352 342
26 48 43 316 4 25 48 7 323 352 349 214 146 145 202 294 276 273 244 250 345 21 343 271 193 281 255 275 262 201 207 153 137 279 245 267 281 277 187 213 136 338 324 326 331
2 340 25 347 68 343 323 297 278 322 344 359 47 16 310 296 334 239 288 325 314 13 322 221 277 335 311 343 6 117 250 231 215 219 223 272 274 270 319 324 316 304 315 327 324
7 3 344 50 89 89 13 305 334 320 114 39 287 325 15 318 201 287 291 292 310 305 295 225 198 189 255 261 261 289 284 277 227 263 279 265 277 279 264 285 303 300 311 311 308
22 37 12 318 332 332 199 323 331 353 340 6 8 11 308 286 274 261 293 299 278 282 262 155 243 222 243 262 264 268 279 284 274 266 266 281 272 282 287 219 263 301 318 318 313
38 7 344 304 305 320 17 358 356 342 295 321 321 303 298 275 238 280 274 252 247 267 246 211 257 244 269 270 269 277 275 275 276 275 245 266 279 301 324 330 314 315 311 304 304
27 360 330 288 329 8 2 327 310 341 298 351 342 326 309 267 303 295 287 273 265 263 279 208 214 195 271 268 285 275 251 248 261 261 242 260 281 11 323 313 304 309 309 302 299